Regional Weather Roundup
Issued by NWS State College, PA

Home | Current Version | Previous Version | Graphics & Text | Print | Product List | Glossary Off
Versions: 1 2 3 4 5 6 7 8 9 10 11 12 13 14 15 16 17 18 19 20 21 22 23 24 25 26 27 28 29 30 31 32 33 34 35 36 37 38 39 40 41 42 43 44 45 46 47 48 49 50

000
ASUS41 KCTP 092003
RWRCTP

REGIONAL WEATHER ROUNDUP
NATIONAL WEATHER SERVICE STATE COLLEGE PA
300 PM EST TUE FEB 09 2016

Note: "fair" indicates few or no clouds below 12,000 feet with no
significant weather and/or obstructions to visibility.

* = STATION THAT DOES NOT REPORT PRECIPITATION /E.G. RAIN...SNOW...ETC/
    THUNDER OR FOG.

PAZ002>004-007>009-013>016-020>023-029>032-092100-
WESTERN PENNSYLVANIA

CITY           SKY/WX    TMP DP  RH WIND       PRES   REMARKS
ERIE           CLOUDY    33  25  72 W10       29.53S
MEADVILLE      CLOUDY    31  24  75 W9        29.51S
FRANKLIN*      CLOUDY    30  23  74 W7        29.53S
NEW CASTLE     CLOUDY    31  24  75 W8        29.56S
BEAVER COUNTY  CLOUDY    30  25  80 W12       29.56R
BUTLER*        CLOUDY    30  23  74 W8        29.58R
PITTSBURGH INT FLURRIES  28  23  81 W9G20     29.56S
PITTSBURGH     CLOUDY    29  22  75 SW16      29.56S
INDIANA*       CLOUDY    27  25  93 SW14G21   29.56R FOG
LATROBE        LGT SNOW  27  25  93 SW17G23   29.58R VSB 1   WCI  14
WASHINGTON CO* CLOUDY    27  21  80 SW13G23   29.59S VSB 1
$$

PAZ004>006-010>012-017>019-024>028-033>037-041-042-045-046-049>053-092100-
CENTRAL PENNSYLVANIA

CITY           SKY/WX    TMP DP  RH WIND       PRES   REMARKS
BRADFORD       CLOUDY    32  22  66 W10       29.43S
DUBOIS         CLOUDY    31  25  78 W15       29.45S
CLEARFIELD     LGT SNOW  30  28  92 SW10      29.47R VSB 3/4
JOHNSTOWN      LGT SNOW  23  17  78 W16       29.47R WCI  10
ALTOONA        CLOUDY    30  23  75 W9        29.50R
STATE COLLEGE  CLOUDY    32  32 100 CALM      29.48S
WILLIAMSPORT   LGT SNOW  33  30  88 E7        29.52S FOG
SELINSGROVE    LGT SNOW  32  30  92 CALM      29.54S VSB 3/4
FT INDIANTOWN  LGT SNOW  30  30 100 CALM      29.54S VSB 3/4
CAPITAL CITY   SNOW      32  28  85 E3        29.54S VSB 1/2
HARRISBURG     LGT SNOW  32  30  92 CALM      29.54S VSB 3/4
YORK           LGT SNOW  32  30  92 CALM      29.53S VSB 3/4
$$

PAZ038>040-043-044-047-048-054-055-060>062-067>071-092100-
EASTERN PENNSYLVANIA

CITY           SKY/WX    TMP DP  RH WIND       PRES   REMARKS
SCRANTON       CLOUDY    35  26  69 CALM      29.49S
MOUNT POCONO   CLOUDY    30  24  78 S3        29.45S
ALLENTOWN      LGT SNOW  34  26  72 E3        29.54S
QUAKERTOWN*    CLOUDY    32  28  86 E5        29.55S
READING        SNOW      33  30  88 CALM      29.53S VSB 1/2
LANCASTER      SNOW      31  30  96 CALM      29.54S VSB 1/4
COATESVILLE    SNOW      32  32 100 E5        29.53R VSB 1/2
POTTSTOWN      LGT SNOW  31  29  92 E6        29.56S VSB 1
BLUE BELL        N/A     32  30  93 CALM      29.54S
DOYLESTOWN     LGT SNOW  31  28  89 NE5       29.54S FOG
WILLOW GROVE   NOT AVBL
NORTH PHILA    CLOUDY    36  30  79 NE8       29.57F
PHILADELPHIA   LGT SNOW  36  31  82 NE8       29.56R
$$



USA.gov is the U.S. government's official web portal to all federal, state and local government web resources and services.